Regional Weather Roundup
Issued by NWS

Home | Current Version | Previous Version | Text Only | Print | Product List | Glossary Off
Versions: 1 2 3 4 5 6 7 8 9 10 11 12 13 14 15 16 17 18 19 20 21 22 23 24 25 26 27 28 29 30 31 32 33 34 35 36 37 38 39 40 41 42 43 44 45 46 47 48 49 50

000
ASUS45 KTFX 021219
RWRMT
MONTANA HOURLY WEATHER ROUNDUP
NATIONAL WEATHER SERVICE GREAT FALLS MT
619 AM MDT TUE SEP 2 2014

NOTE: "FAIR" INDICATES FEW OR NO CLOUDS BELOW 12000 FEET WITH NO
SIGNIFICANT WEATHER AND/OR OBSTRUCTIONS TO VISIBILITY.

* THESE STATIONS ARE NOT UNDER NWS QUALITY CONTROL. THEY DO NOT
   REPORT WEATHER SUCH AS PRECIPITATION OR FOG.

MTZ001>007-043-021300-
WEST OF THE DIVIDE
CITY           SKY/WX    TMP DP  RH WIND       PRES   REMARKS
KALISPELL      MOCLDY    43  39  86 W3        29.91F
MISSOULA       MOCLDY    43  39  86 CALM      29.99S
BUTTE          CLEAR     36  34  92 SE3       30.04F
MULLAN PASS    CLOUDY    45  37  74 S8        29.99F
* LINCOLN      N/A       37  35  92 N1         N/A
* LOOKOUT PASS N/A       43  39  86 S1         N/A
* POLSON       N/A       49  39  69 SE2        N/A
* RONAN APT    MOCLDY    45  39  80 N/A        N/A
* SEELEY LAKE  N/A       33  32  96 N2         N/A
* THOMP F APT  CLOUDY    43  35  73 NE2        N/A
$$

MTZ008-052>055-021300-
SOUTHWEST MONTANA
CITY           SKY/WX    TMP DP  RH WIND       PRES   REMARKS
BOZEMAN        MOCLDY    41  37  86 SE7       29.99S
DILLON         CLEAR     46  37  71 S10       30.01S
W YELLOWSTONE  CLEAR     32  32 100 SW3       30.12F
* THREE FORKS  PTCLDY    43  25  49 N/A        N/A
* BOULDER HILL N/A       48  30  50 S8         N/A
* MONIDA PASS  N/A       40  35  82 SE12       N/A   WCI  33
* RAYNOLDS PAS N/A       41  19  41 SE9        N/A
* WHITEHALL    N/A       44  39  83 N1         N/A
* WISE RIVER   N/A       34  31  89 SW3G8      N/A
$$

MTZ009>010-012-014-046-048-049-054-021300-
EAST SLOPES AND CENTRAL MONTANA
CITY           SKY/WX    TMP DP  RH WIND       PRES   REMARKS
CUT BANK       MOCLDY    52  37  57 W13       29.86F
GREAT FALLS    CLOUDY    48  39  71 S8        29.89F
HELENA         MOCLDY    57  37  47 W5        29.94F
MALMSTROM AFB  CLOUDY    50  41  71 SW7       29.91S
* CONRAD       MOCLDY    46  39  77 N/A        N/A
* EAST GLACIER N/A       50  36  59 W18        N/A
* MONARCH      N/A       49  28  44 SW9        N/A
* PENDROY      N/A       47  36  66 SW3        N/A
* ROGERS PASS  N/A       48  35  61 SE11G19    N/A
* SAINT MARY   N/A       54  36  51 S7G17      N/A
* SWEET GRASS  N/A       52  36  55 W12        N/A
* WHITE SULPH  N/A       40  35  82 NE2        N/A
$$

MTZ011-013-016-021-035-040-045-047-050-051-021300-
NORTH CENTRAL MONTANA
CITY           SKY/WX    TMP DP  RH WIND       PRES   REMARKS
HAVRE          MOCLDY    52  39  61 SW17G22   29.83F
LEWISTOWN      CLOUDY    45  37  74 SE5       29.93S
* CHINOOK      MOCLDY    52  39  61 SW6       29.83S
* FORT BENTON  CLOUDY    52  39  61 SW5       29.88S
* CHESTER      N/A       43  36  76 E1         N/A
* DENTON       N/A       50  40  69 S7         N/A
* GEYSER       N/A       46  37  71 W4         N/A
* JUDITH GAP   N/A       50  37  61 SE2        N/A
* LOMA         N/A       50  40  69 SW3        N/A
$$

MTZ017>020-022>027-061-062-021300-
NORTHEAST MONTANA
CITY           SKY/WX    TMP DP  RH WIND       PRES   REMARKS
GLASGOW        MOCLDY    52  45  77 W7        29.79S
GLENDIVE       PTCLDY    50  45  83 CALM      29.85S
JORDAN         PTCLDY    48  45  89 NW6       29.85S
SIDNEY         PTCLDY    48  46  93 S3        29.80F
WOLF POINT     MOCLDY    54  46  74 SW6       29.79S
* BEAVER HILL  N/A       51  43  74 S14        N/A
* CIRCLE       N/A       52  46  80 N/A        N/A
* LINDSAY DVD  N/A       55  41  59 W9         N/A
* NAVAJO       N/A       51  44  77 SW14       N/A
$$

MTZ028>042-056>058-021300-
SOUTHCENTRAL AND SOUTHEAST MONTANA
CITY           SKY/WX    TMP DP  RH WIND       PRES   REMARKS
BAKER          CLEAR     54  43  67 W10       29.88S
BILLINGS       MOCLDY    54  43  67 NW3       29.92R
LIVINGSTON     MOCLDY    46  37  71 NW8       29.97S
MILES CITY     PTCLDY    48 N/A N/A S6        29.86F
* LAUREL APT   PTCLDY    48  37  66 N/A        N/A
* ROUNDUP APT  MOCLDY    48  39  71 N/A        N/A
* ALZADA       N/A       56  42  60 S2         N/A
* HYSHAM       N/A       52  39  61 W4         N/A
* LAME DEER    N/A       51  41  69 SW4        N/A
* REED POINT   N/A       42  41  96 N/A        N/A
* ROSCOE HILL  N/A       53  28  38 SE9        N/A
$$

REGIONAL REPORTS...DAKOTAS
CITY           SKY/WX    TMP DP  RH WIND       PRES   REMARKS
WILLISTON      PTCLDY    52  48  86 SW8       29.76F
DICKINSON      CLEAR     54  45  72 SW16      29.81F
BEACH          N/A       52  45  77 SW14      29.84F
CROSBY         CLEAR     50  50 100 S9        29.72F
TIOGA          CLEAR     52  52 100 SW9       29.78S
WATFORD CITY   FAIR      50  46  86 SW5       29.76F
BISMARCK       PTCLDY    50  46  86 CALM      29.83F
GRAND FORKS    PTCLDY    52  48  86 W6        29.77R
FARGO          CLEAR     52  48  86 SW7       29.81R
BUFFALO SD     CLEAR     52  45  77 W13       29.84S
RAPID CITY     CLEAR     45  39  80 SW3       29.97S
$$

REGIONAL REPORTS...WYOMING/IDAHO/WASHINGTON
CITY           SKY/WX    TMP DP  RH WIND       PRES   REMARKS
GILLETTE       CLEAR     52  43  72 S16       29.97F
SHERIDAN       CLEAR     45  37  74 SW6       29.92F
CODY           CLEAR    N/A N/A N/A N/A        N/A
YELLOWSTONE LA CLEAR     28  28 100 NW3       30.19F
SALMON         PTCLDY    41  37  86 CALM      30.03S
MULLAN PASS    CLOUDY    45  37  74 S8        29.99S
SAND POINT     CLOUDY    46  46 100 CALM      29.88F
SPOKANE        PTCLDY    52  39  61 S9        29.88F
$$

REGIONAL REPORTS...ALBERTA
CITY           SKY/WX    TMP DP  RH WIND       PRES   REMARKS
CALGARY        MOCLDY    50  41  71 SW7       29.77F
LETHBRIDGE     CLOUDY    50  41  71 SW7       29.80F
MEDICINE HAT   CLEAR     46  43  89 SW8       29.79S
EDMONTON       LGT RAIN  48  45  89 W7        29.74R
WATERTON GATE  N/A       54  37  53 SW12G18    N/A
CARDSTON       N/A       55  39  55 SW7        N/A
MILK RIVER     N/A       46  39  77 SE2        N/A
$$

REGIONAL REPORTS...SASKATCHEWAN
CITY           SKY/WX    TMP DP  RH WIND       PRES   REMARKS
SWIFT CURRENT  CLEAR     45  43  93 W10       29.76R
REGINA         MOCLDY    48  46  93 CALM      29.69F
VAL MARIE      N/A       48  43  83 W6         N/A
ASSINIBOIA     N/A       50  45  83 W8         N/A
CORONACH       N/A       50  43  77 SW8        N/A

$$




USA.gov is the U.S. government's official web portal to all federal, state and local government web resources and services.